N0MR Weather Reports


time (UTC)temp
C
wind
direction
speed
KPH
gust
KPH
rain 1hr
cm
rain 24hr
cm
rain mn
cm
humidity
%
barometer
mb
20260831031537 16 61 0.0 3.2 0.00 0.00 0.00 95 1011.8
20260831030536 16 182 0.0 3.2 0.00 0.00 0.00 95 1011.8
20260831025538 16 182 0.0 3.2 0.00 0.00 0.00 95 1011.8
20260831024537 16 226 1.6 1.6 0.00 0.00 0.00 95 1011.4
20260831023538 16 226 1.6 1.6 0.00 0.00 0.00 95 1011.4
20260831022539 16 175 0.0 1.6 0.00 0.00 0.00 94 1011.1
20260831021538 16 175 0.0 1.6 0.00 0.00 0.00 94 1011.1
20260831020537 16 150 0.0 11.3 0.00 0.00 0.00 94 1011.3
20260831015539 16 150 0.0 11.3 0.00 0.00 0.00 94 1011.3
20260831014538 16 316 0.0 8.0 0.00 0.00 0.00 94 1011.0
20260831013539 16 316 0.0 8.0 0.00 0.00 0.00 94 1011.0
20260831012537 16 134 0.0 3.2 0.00 0.00 0.00 94 1010.6
20260831011538 16 134 0.0 3.2 0.00 0.00 0.00 94 1010.6
20260831010537 17 184 0.0 6.4 0.00 0.00 0.00 93 1010.7
20260831005539 17 184 0.0 6.4 0.00 0.00 0.00 93 1010.7
20260831004539 17 126 0.0 3.2 0.00 0.00 0.00 93 1011.3
20260831003538 17 126 0.0 3.2 0.00 0.00 0.00 93 1011.3
20260831002538 17 267 0.0 4.8 0.00 0.00 0.00 93 1011.9
20260831001539 17 273 0.0 4.8 0.00 0.00 0.00 93 1012.0
20260831000538 17 273 0.0 4.8 0.00 0.00 0.00 93 1012.0
20260830235539 17 53 0.0 1.6 0.00 0.00 0.00 92 1011.8
20260830234538 17 53 0.0 1.6 0.00 0.00 0.00 92 1011.8
20260830233538 17 132 0.0 3.2 0.00 0.00 0.00 92 1011.8
20260830232539 17 132 0.0 3.2 0.00 0.00 0.00 92 1011.8
20260830231538 17 167 0.0 3.2 0.00 0.00 0.00 92 1011.8
20260830230540 17 167 0.0 3.2 0.00 0.00 0.00 92 1011.8
20260830225539 17 104 0.0 3.2 0.00 0.00 0.00 92 1011.8
20260830224538 17 104 0.0 3.2 0.00 0.00 0.00 92 1011.8
20260830223540 17 60 0.0 3.2 0.00 0.00 0.00 93 1012.2
20260830222540 17 60 0.0 3.2 0.00 0.00 0.00 93 1012.2
20260830221539 17 114 0.0 8.0 0.00 0.00 0.00 92 1012.1
20260830220540 17 114 0.0 8.0 0.00 0.00 0.00 92 1012.1
20260830215541 17 350 0.0 6.4 0.00 0.00 0.00 91 1012.2
20260830214538 17 350 0.0 6.4 0.00 0.00 0.00 91 1012.2
20260830213539 17 355 0.0 1.6 0.00 0.00 0.00 92 1012.6
20260830212540 17 355 0.0 1.6 0.00 0.00 0.00 92 1012.6
20260830211539 17 169 0.0 11.3 0.00 0.00 0.00 91 1012.5
20260830210539 17 28 0.0 8.0 0.00 0.00 0.00 91 1012.6
20260830205549 17 28 0.0 8.0 0.00 0.00 0.00 91 1012.6
20260830204540 17 335 0.0 1.6 0.00 0.00 0.00 91 1012.6
20260830203539 17 335 0.0 1.6 0.00 0.00 0.00 91 1012.6
20260830202540 17 263 0.0 3.2 0.00 0.00 0.00 91 1012.2
20260830201549 17 263 0.0 3.2 0.00 0.00 0.00 91 1012.2
20260830200540 17 198 0.0 6.4 0.00 0.00 0.00 91 1012.3
20260830195540 17 198 0.0 6.4 0.00 0.00 0.00 91 1012.3
20260830194541 17 57 0.0 3.2 0.00 0.00 0.00 91 1012.4
20260830193540 17 57 0.0 3.2 0.00 0.00 0.00 91 1012.4
20260830192540 17 193 0.0 8.0 0.00 0.00 0.00 91 1012.3
20260830191542 17 193 0.0 8.0 0.00 0.00 0.00 91 1012.3
20260830190541 17 121 0.0 3.2 0.00 0.00 0.00 93 1012.3
20260830185539 17 121 0.0 3.2 0.00 0.00 0.00 93 1012.3
20260830184540 17 132 0.0 8.0 0.00 0.00 0.00 94 1012.1
20260830183541 17 132 0.0 8.0 0.00 0.00 0.00 94 1012.1
20260830182540 16 80 0.0 3.2 0.00 0.00 0.00 94 1012.1
20260830181541 16 80 0.0 3.2 0.00 0.00 0.00 94 1012.1
20260830180540 16 167 0.0 3.2 0.00 0.00 0.00 94 1012.1
20260830175541 16 186 0.0 9.7 0.00 0.00 0.00 94 1012.5
20260830174540 16 186 0.0 9.7 0.00 0.00 0.00 94 1012.5
20260830173541 16 263 0.0 8.0 0.00 0.00 0.00 95 1012.5
20260830172540 16 263 0.0 8.0 0.00 0.00 0.00 95 1012.5
20260830171540 16 187 0.0 8.0 0.00 0.00 0.00 95 1012.7
20260830170541 16 187 0.0 8.0 0.00 0.00 0.00 95 1012.7
20260830165541 16 227 0.0 6.4 0.00 0.00 0.00 96 1012.8
20260830164541 16 227 0.0 6.4 0.00 0.00 0.00 96 1012.8
20260830161541 16 253 0.0 1.6 0.00 0.00 0.00 95 1012.8
20260830160540 16 253 0.0 1.6 0.00 0.00 0.00 95 1012.8
20260830155541 16 195 0.0 3.2 0.00 0.00 0.00 96 1013.0
20260830154542 16 195 0.0 3.2 0.00 0.00 0.00 96 1013.0
20260830153541 16 252 0.0 9.7 0.00 0.00 0.00 96 1012.7
20260830152542 16 252 0.0 9.7 0.00 0.00 0.00 96 1012.7
20260830151542 16 278 0.0 1.6 0.00 0.00 0.00 96 1012.5
20260830150541 16 278 0.0 1.6 0.00 0.00 0.00 96 1012.5
20260830145542 16 305 0.0 3.2 0.00 0.00 0.00 96 1012.2
20260830144542 16 32 0.0 9.7 0.00 0.00 0.00 96 1011.8
20260830143541 16 32 0.0 9.7 0.00 0.00 0.00 96 1011.8
20260830142541 16 71 0.0 8.0 0.00 0.00 0.00 96 1012.0
20260830141543 16 71 0.0 8.0 0.00 0.00 0.00 96 1012.0
20260830140542 16 238 0.0 6.4 0.00 0.00 0.00 96 1012.2
20260830135545 16 238 0.0 6.4 0.00 0.00 0.00 96 1012.2
20260830134542 16 267 0.0 3.2 0.00 0.00 0.00 96 1012.5
20260830133542 16 267 0.0 3.2 0.00 0.00 0.00 96 1012.5
20260830132542 16 317 0.0 0.0 0.00 0.00 0.00 96 1012.8
20260830131542 16 317 0.0 0.0 0.00 0.00 0.00 96 1012.8
20260830130542 16 290 0.0 6.4 0.00 0.00 0.00 96 1012.6
20260830125542 16 290 0.0 6.4 0.00 0.00 0.00 96 1012.6
20260830124542 16 210 0.0 6.4 0.00 0.00 0.00 96 1012.6
20260830123543 16 210 0.0 6.4 0.00 0.00 0.00 96 1012.6
20260830122543 16 280 0.0 3.2 0.00 0.00 0.00 96 1012.4
20260830121542 16 280 0.0 3.2 0.00 0.00 0.00 96 1012.4
20260830120542 16 279 0.0 3.2 0.00 0.00 0.00 96 1011.7
20260830115542 16 279 0.0 3.2 0.00 0.00 0.00 96 1011.7
20260830114542 16 280 0.0 0.0 0.00 0.00 0.00 96 1012.0
20260830113542 16 277 0.0 1.6 0.00 0.00 0.00 96 1012.2
20260830112543 16 277 0.0 1.6 0.00 0.00 0.00 96 1012.2
20260830111542 16 31 0.0 1.6 0.00 0.00 0.00 96 1011.9
20260830110542 16 31 0.0 1.6 0.00 0.00 0.00 96 1011.9
20260830105543 16 346 0.0 1.6 0.00 0.00 0.00 96 1011.7
20260830104543 16 346 0.0 1.6 0.00 0.00 0.00 96 1011.7
20260830103542 16 345 0.0 3.2 0.00 0.00 0.00 96 1011.5
20260830102544 16 345 0.0 3.2 0.00 0.00 0.00 96 1011.5
20260830101544 16 241 0.0 3.2 0.00 0.00 0.00 96 1011.6
20260830100544 16 241 0.0 3.2 0.00 0.00 0.00 96 1011.6
20260830095544 16 241 0.0 0.0 0.00 0.00 0.00 96 1012.0
20260830094543 16 241 0.0 0.0 0.00 0.00 0.00 96 1012.0
20260830093544 16 275 0.0 1.6 0.00 0.00 0.00 96 1011.7
20260830092543 16 275 0.0 1.6 0.00 0.00 0.00 96 1011.7
20260830091544 16 275 0.0 0.0 0.00 0.00 0.00 95 1011.4
20260830090544 16 275 0.0 0.0 0.00 0.00 0.00 95 1011.4
20260830085544 16 267 0.0 0.0 0.00 0.00 0.00 95 1011.8
20260830084543 16 267 0.0 0.0 0.00 0.00 0.00 95 1011.8
20260830083546 16 269 0.0 1.6 0.00 0.00 0.00 95 1011.8
20260830082544 16 269 0.0 1.6 0.00 0.00 0.00 95 1011.8
20260830081544 16 267 0.0 0.0 0.00 0.00 0.00 95 1011.6
20260830080544 16 267 0.0 0.0 0.00 0.00 0.00 95 1011.4
20260830075545 16 267 0.0 0.0 0.00 0.00 0.00 95 1011.4
20260830074544 16 267 0.0 0.0 0.00 0.00 0.00 95 1011.3
20260830073544 16 267 0.0 0.0 0.00 0.00 0.00 95 1011.3
20260830072544 16 267 0.0 0.0 0.00 0.00 0.00 95 1011.4
20260830071547 16 267 0.0 0.0 0.00 0.00 0.00 95 1011.4
20260830070545 16 267 0.0 0.0 0.00 0.00 0.00 94 1011.5
20260830065545 16 267 0.0 0.0 0.00 0.00 0.00 94 1011.5
20260830064544 16 267 0.0 0.0 0.00 0.00 0.00 95 1011.9
20260830063544 16 267 0.0 0.0 0.00 0.00 0.00 95 1011.9
20260830062544 16 267 0.0 0.0 0.00 0.00 0.00 94 1012.2
20260830061545 16 267 0.0 0.0 0.00 0.00 0.00 94 1012.2
20260830060545 16 267 0.0 0.0 0.00 0.00 0.00 94 1012.5
20260830055547 16 267 0.0 0.0 0.00 0.00 0.00 94 1012.5
20260830054544 16 267 0.0 0.0 0.00 0.00 0.00 93 1012.7
20260830053545 16 267 0.0 0.0 0.00 0.00 0.00 93 1012.7
20260830052544 16 267 0.0 0.0 0.00 0.00 0.00 93 1012.7
20260830051544 16 267 0.0 0.0 0.00 0.00 0.00 93 1012.7
20260830050545 16 267 0.0 0.0 0.00 0.00 0.00 93 1012.7
20260830045544 16 267 0.0 0.0 0.00 0.00 0.00 93 1012.9
20260830044545 16 267 0.0 0.0 0.00 0.00 0.00 93 1012.9
20260830043545 16 267 0.0 0.0 0.00 0.00 0.00 92 1012.7
20260830042544 16 267 0.0 0.0 0.00 0.00 0.00 92 1012.7
20260830041544 16 267 0.0 0.0 0.00 0.00 0.00 92 1012.8
20260830040545 16 267 0.0 0.0 0.00 0.00 0.00 92 1012.8
20260830035545 17 267 0.0 0.0 0.00 0.00 0.00 92 1012.4
20260830034546 17 267 0.0 0.0 0.00 0.00 0.00 92 1012.4
20260830033547 17 267 0.0 0.0 0.00 0.00 0.00 92 1012.3
20260830032545 17 267 0.0 0.0 0.00 0.00 0.00 92 1012.3